CAPE
82 456 90 50 12 8 41 77 70 110 333 534 684 1051 626 347 314 743 449 547 476 362 133 90 676 29 0 0 70 215 546 1485 1567 1531 1305 803 1776 1330 2325 2161 1655 1597 1749 1942
355 271 110 33 26 37 34 22 16 24 68 494 571 1004 854 523 359 387 616 451 548 189 139 551 738 467 61 0 10 98 374 1233 1577 1450 1173 690 904 544 910 2192 2063 2463 2418 1919
274 164 50 9 20 9 0 8 0 58 48 203 563 896 1146 820 524 379 449 534 487 297 257 511 359 345 32 0 14 37 282 1125 1724 1489 1269 1662 1668 1258 677 671 1997 1639 2054 1999
105 121 1 0 10 5 7 0 0 0 59 488 452 60 570 1388 911 519 364 409 556 631 574 682 331 318 431 441 16 53 238 1494 1787 1795 1894 1878 1400 2088 1450 967 2798 1852 1773 1624
63 115 94 44 26 0 2 0 0 0 0 31 346 378 1675 1534 1477 844 499 414 506 648 823 505 767 740 708 818 310 609 607 1473 1695 1976 2097 1789 1955 1510 921 695 1672 2130 2500 1797
3 9 0 21 4 0 0 0 1 0 27 33 1 189 289 1106 1452 1389 648 550 533 623 750 912 870 941 970 706 680 802 1081 1551 1948 1824 1944 2115 2064 1667 2115 1135 1021 1886 1994 2147
42 20 30 5 0 0 0 65 105 139 39 75 23 294 427 449 548 1303 1060 655 535 623 776 828 896 874 990 862 620 884 1335 2132 1942 1863 1836 1999 2058 1938 1961 1657 1022 1430 587 3008
26 52 64 0 0 29 0 1 16 61 49 51 33 241 23 346 553 974 996 710 618 516 663 763 890 906 870 833 759 1047 1178 2013 1511 1846 2061 2614 1834 1674 1712 1465 1144 912 718 557
92 5 0 0 0 0 14 0 20 13 48 17 59 139 284 325 630 794 894 704 688 605 511 631 744 803 872 912 923 1023 1965 2251 2145 1461 2461 1855 2010 2148 1859 2789 1548 1262 1176 566
36 38 4 0 0 0 0 6 37 93 99 149 54 295 394 443 596 864 949 803 765 717 633 612 673 810 791 712 796 873 1063 1495 1207 1213 1511 1699 1780 2002 2075 1865 2344 1844 1504 1241
0 33 35 0 0 0 0 0 1 19 35 132 78 92 177 354 856 916 954 1131 1092 952 934 856 801 854 945 794 722 622 697 765 983 1321 1290 1659 1600 1465 1968 1735 1882 2229 1951 2071
0 32 64 74 56 36 18 43 69 113 28 48 261 209 399 125 487 955 921 1259 1439 1374 1062 1098 1155 1148 1129 1098 1006 947 926 1047 1307 1530 1774 1345 1357 1524 1472 1809 1616 1375 1559 2139
0 9 133 41 67 37 19 4 51 20 86 137 181 28 5 380 321 664 949 1292 1617 1683 1238 1486 1603 1618 1617 1472 1410 1271 1301 1293 1410 1615 1562 1574 1432 1626 1664 1456 1456 1396 1752 1770
29 86 120 88 64 4 32 47 105 86 65 96 58 114 234 402 440 722 762 1146 1429 1709 1458 1587 1682 1847 1931 2252 2015 2046 1682 1555 1535 1446 1433 1635 1510 1461 1383 1380 1685 1781 1652 1849
17 103 94 74 0 2 41 7 48 63 18 13 0 55 106 234 310 820 963 1428 1577 1708 1581 1786 1671 1889 2313 2462 2367 2487 2225 2017 1991 2276 2096 2074 2391 1967 2177 1973 1968 2181 2487 3087
103 130 82 143 81 59 13 58 65 71 44 27 65 106 119 171 890 990 1164 1440 1856 1998 1923 2109 2012 2145 2406 2570 2755 2699 2832 2453 2599 2973 2871 3841 3227 3147 3082 3056 3088 4093 3890 3869
300 182 132 126 119 139 59 58 100 119 77 91 64 212 300 616 1017 973 1099 1256 1636 1968 2083 2009 2029 2158 2196 2349 2894 2919 3040 2689 2649 3138 3408 3479 3690 3653 3729 3763 3705 3530 3539 3411
410 480 323 299 246 66 284 95 27 9 18 104 77 286 348 572 1031 972 1021 1074 1144 1696 2095 2062 1945 1641 1438 1953 2443 2835 2840 3531 3462 3529 3793 3992 3766 3557 3500 3444 2793 2911 2687 2362
362 399 393 443 417 333 293 217 140 120 440 466 388 190 568 519 954 1116 1065 1324 1542 1344 1774 2101 1922 1678 2179 2486 3102 3211 3193 3397 3804 3948 3975 3709 3595 3156 2691 2348 2005 1739 1083 610
266 340 466 497 493 463 474 291 163 243 275 528 570 602 805 791 807 1132 1181 1470 1687 1456 1575 1897 2272 2391 2541 3045 3171 3476 3849 3969 3871 3839 3710 2976 2701 2044 1383 879 691 372 184 86
404 288 358 453 409 399 522 378 336 369 637 528 696 701 862 1202 1548 1206 1313 1479 1896 1970 2302 2468 2499 2575 3031 3295 3587 3828 3935 3842 3453 2698 1764 1105 795 750 609 564 433 340 236 148
193 403 448 406 356 447 259 340 592 924 716 680 618 604 982 1149 1259 1031 1287 1497 2170 2298 2501 2612 2671 3010 3366 3512 3706 3752 3565 2486 1647 1011 728 701 629 193 231 356 266 156 85 6
6 65 122 275 516 44 17 159 191 488 450 174 271 230 705 1081 1373 1074 1336 1553 2387 2510 2735 2785 2878 3415 3449 3534 3611 3330 2074 1647 920 641 608 514 426 156 120 44 2 0 5 9
0 0 0 48 114 0 0 0 2 36 33 43 21 11 169 680 1042 1384 1117 1550 2503 2759 2960 2794 2929 3323 3340 3474 3316 2366 1267 1022 662 601 514 356 138 42 1 0 0 0 0 0
0 0 0 0 4 12 18 0 0 0 0 0 0 0 0 44 307 761 1534 1460 1866 2987 3148 2874 3020 3159 3293 3242 2363 1244 898 723 571 513 252 107 2 0 0 0 0 0 0 0
0 0 0 0 0 0 2 0 0 0 0 0 0 0 0 30 39 124 370 1458 1737 2159 3496 3365 3386 3338 3202 2433 1494 919 667 621 533 380 117 13 3 0 0 0 0 0 0 0
CIN
-38 -0 -11 -33 -8 -9 -5 -0 -0 -0 -2 -0 -0 -6 -45 -59 -35 -4 -29 -5 -0 -0 -2 -18 -2 -102 -0 -0 -10 -3 -0 -0 -0 -0 -0 -0 -0 -17 -9 -7 -8 -5 -0 -1
-0 -32 -1 -33 -15 -9 -9 -8 -0 -14 -20 -3 -0 -0 -24 -53 -67 -45 -30 -25 -0 -3 -13 -0 -4 -0 -14 -0 -39 -55 -2 -0 -0 -0 -0 -0 -1 -1 -0 -10 -6 -4 -0 -0
-49 -61 -19 -34 -6 -0 -0 -1 -0 -0 -35 -13 -0 -0 -5 -56 -68 -81 -40 -28 -22 -18 -14 -2 -7 -0 -53 -0 -38 -49 -24 -0 -0 -1 -0 -0 -2 -6 -0 -0 -2 -0 -0 -0
-0 -0 -4 -0 -0 -1 -0 -0 -0 -0 -7 -32 -0 -81 -25 -23 -59 -78 -86 -46 -19 -39 -10 -0 -16 -4 -8 -1 -132 -49 -35 -0 -0 -0 -0 -0 -1 -5 -1 -0 -5 -0 -0 -1
-4 -0 -1 -0 -3 -0 -0 -0 -0 -0 -3 -0 -0 -0 -5 -0 -26 -58 -67 -73 -53 -23 -28 -43 -9 -0 -0 -0 -5 -3 -22 -0 -0 -0 -3 -0 -2 -1 -0 -0 -4 -5 -2 -5
-27 -23 -4 -11 -13 -0 -0 -0 -1 -0 -0 -112 -30 -0 -63 -7 -0 -16 -58 -55 -81 -67 -27 -7 -4 -1 -0 -0 -0 -0 -0 -0 -0 -0 -0 -3 -0 -0 -3 -1 -1 -19 -32 -55
-7 -4 -6 -17 -0 -0 -0 -0 -64 -3 -28 -12 -5 -0 -150 -3 -9 -13 -31 -52 -73 -76 -79 -35 -6 -1 -0 -0 -0 -0 -1 -0 -0 -0 -1 -3 -4 -2 -1 -2 -0 -6 -0 -12
-28 -3 -1 -0 -0 -1 -0 -0 -3 -1 -0 -4 -0 -6 -56 -2 -10 -6 -22 -43 -64 -71 -74 -84 -37 -7 -1 -0 -0 -5 -16 -3 -5 -2 -6 -1 -14 -10 -1 -2 -0 -0 -0 -6
-2 -0 -0 -0 -0 -0 -5 -2 -0 -0 -0 -0 -101 -2 -34 -27 -17 -5 -18 -34 -55 -58 -71 -71 -80 -49 -16 -4 -0 -0 -0 -3 -4 -17 -1 -13 -22 -13 -2 -0 -0 -0 -2 -12
-0 -5 -5 -0 -0 -0 -0 -4 -0 -0 -1 -0 -31 -8 -3 -13 -10 -8 -14 -21 -40 -46 -42 -59 -74 -76 -70 -56 -37 -15 -13 -11 -42 -32 -20 -23 -29 -26 -14 -16 -0 -9 -12 -14
-0 -0 -12 -0 -0 -1 -0 -0 -0 -9 -19 -16 -1 -2 -0 -6 -14 -9 -2 -13 -23 -28 -24 -32 -46 -64 -75 -75 -74 -89 -79 -82 -66 -41 -26 -17 -26 -40 -41 -38 -31 -20 -25 -14
-0 -1 -0 -1 -3 -6 -7 -8 -19 -2 -12 -84 -1 -26 -5 -3 -4 -10 -2 -4 -0 -1 -0 -9 -20 -32 -49 -60 -52 -61 -67 -70 -57 -34 -26 -50 -61 -46 -38 -45 -47 -65 -58 -25
-0 -26 -0 -17 -1 -6 -8 -6 -0 -26 -0 -0 -0 -53 -59 -16 -8 -6 -3 -7 -0 -0 -0 -0 -0 -5 -28 -59 -46 -46 -53 -55 -46 -34 -42 -56 -52 -57 -52 -45 -60 -64 -60 -65
-23 -0 -0 -0 -23 -30 -7 -5 -1 -0 -3 -21 -45 -21 -0 -9 -11 -19 -18 -16 -17 -1 -0 -0 -0 -7 -32 -36 -28 -33 -28 -24 -38 -14 -31 -29 -51 -42 -54 -57 -53 -46 -63 -53
-22 -0 -0 -0 -0 -6 -9 -67 -2 -7 -2 -10 -0 -30 -0 -1 -4 -21 -28 -43 -40 -20 -0 -0 -0 -14 -58 -40 -28 -34 -21 -11 -4 -31 -23 -28 -27 -28 -32 -34 -46 -41 -16 -1
-2 -0 -1 -0 -1 -4 -1 -0 -2 -1 -0 -0 -0 -0 -2 -3 -13 -26 -28 -36 -45 -29 -0 -3 -8 -27 -25 -36 -49 -53 -44 -26 -17 -46 -39 -0 -17 -20 -19 -10 -7 -0 -0 -1
-0 -1 -0 -1 -1 -0 -0 -0 -1 -1 -2 -1 -0 -41 -0 -7 -18 -28 -37 -48 -51 -32 -0 -5 -17 -21 -17 -30 -77 -90 -78 -63 -75 -63 -28 -17 -13 -13 -8 -3 -1 -2 -0 -0
-1 -0 -0 -0 -0 -27 -16 -23 -32 -102 -7 -0 -16 -1 -8 -0 -10 -20 -33 -49 -48 -51 -12 -7 -12 -14 -13 -17 -49 -90 -90 -45 -57 -42 -31 -15 -21 -17 -10 -4 -25 -6 -0 -2
-0 -4 -0 -1 -0 -0 -1 -11 -33 -5 -8 -28 -23 -10 -17 -10 -5 -24 -37 -46 -56 -79 -55 -21 -14 -20 -24 -61 -115 -122 -111 -88 -55 -33 -28 -24 -14 -18 -28 -33 -44 -47 -109 -187
-0 -0 -0 -0 -0 -0 -3 -13 -35 -1 -0 -64 -52 -51 -33 -9 -0 -2 -35 -39 -39 -58 -48 -21 -17 -21 -55 -95 -108 -84 -59 -50 -38 -29 -23 -41 -43 -77 -124 -182 -203 -270 -333 -402
-0 -0 -0 -0 -0 -0 -36 -18 -29 -0 -28 -112 -110 -121 -87 -16 -20 -36 -27 -47 -43 -44 -26 -29 -35 -41 -68 -80 -51 -36 -44 -39 -64 -106 -150 -243 -257 -241 -236 -222 -239 -246 -259 -324
-0 -0 -0 -0 -0 -0 -111 -65 -23 -101 -161 -154 -186 -187 -146 -115 -92 -99 -44 -44 -44 -47 -42 -48 -57 -64 -60 -50 -36 -40 -59 -158 -249 -264 -333 -297 -272 -352 -310 -242 -250 -276 -333 -234
-41 -22 -26 -34 -34 -72 -30 -201 -64 -158 -220 -279 -272 -235 -228 -162 -157 -144 -57 -62 -52 -55 -49 -50 -61 -53 -53 -47 -44 -80 -231 -267 -362 -379 -341 -302 -288 -346 -341 -372 -43 -8 -36 -66
-1 -0 -0 -102 -44 -0 -0 -0 -26 -30 -15 -12 -10 -15 -283 -222 -211 -124 -107 -60 -49 -45 -40 -56 -55 -53 -57 -47 -53 -174 -360 -375 -405 -370 -322 -325 -369 -405 -228 -0 -0 -0 -0 -0
-0 -0 -0 -0 -60 -67 -63 -0 -0 -0 -0 -0 -0 -0 -0 -250 -336 -264 -138 -99 -67 -11 -22 -39 -21 -18 -33 -50 -131 -314 -391 -401 -381 -355 -376 -395 -63 -0 -0 -0 -0 -0 -0 -0
-0 -0 -0 -0 -0 -0 -1 -0 -0 -0 -0 -0 -0 -0 -0 -26 -91 -424 -321 -194 -118 -45 -0 -10 -0 -0 -18 -118 -191 -376 -407 -384 -364 -359 -388 -257 -368 -0 -0 -0 -0 -0 -0 -0
Wind_Speed
nan 28 nan nan nan nan nan nan nan 2 7 10 11 13 17 16 15 19 21 22 23 19 11 nan 11 nan nan nan nan 4 9 14 9 8 4 6 6 8 6 8 9 7 8 10
39 23 11 nan nan nan nan nan nan nan nan 14 10 14 17 18 16 15 21 25 27 26 22 14 13 13 nan nan nan nan 6 8 7 8 7 9 13 11 13 12 9 9 10 8
24 47 nan nan nan nan nan nan nan nan nan 17 11 10 16 18 15 17 19 24 25 22 26 23 22 18 nan nan nan nan 2 6 8 12 14 13 15 10 7 9 7 8 10 13
9 19 nan nan nan nan nan nan nan nan nan 16 21 nan 30 24 21 21 25 19 22 27 21 21 27 25 18 12 nan nan 2 2 9 12 11 17 14 15 18 7 13 10 11 10
nan 17 nan nan nan nan nan nan nan nan nan nan 12 8 29 31 24 22 24 23 18 21 27 22 22 22 25 26 17 9 7 6 7 13 9 13 10 10 13 12 10 9 12 10
nan nan nan nan nan nan nan nan nan nan nan nan nan 8 22 15 21 22 23 25 24 21 21 28 27 25 22 22 22 9 8 6 9 10 12 7 9 5 8 10 5 7 11 12
nan nan nan nan nan nan nan nan 9 7 nan nan nan 9 31 21 18 27 28 27 24 22 22 24 26 23 20 20 18 9 1 5 3 6 8 6 2 5 5 0 2 9 6 15
nan nan nan nan nan nan nan nan nan nan nan nan nan 22 nan 13 12 30 31 26 25 26 25 23 22 20 18 14 18 16 11 5 7 5 5 6 7 5 4 4 1 3 5 10
nan nan nan nan nan nan nan nan nan nan nan nan nan 14 23 23 23 33 30 32 26 23 24 22 21 20 16 15 13 14 11 9 10 11 7 8 6 7 4 4 9 9 10 11
nan nan nan nan nan nan nan nan nan nan nan 9 nan 10 25 16 28 28 32 31 29 22 23 23 20 19 16 13 13 10 8 6 7 8 5 5 7 9 9 9 10 4 7 9
nan nan nan nan nan nan nan nan nan nan nan 14 nan nan 13 25 33 23 31 30 31 24 21 21 21 21 17 9 10 9 8 8 7 10 10 8 8 9 9 12 12 12 13 14
nan nan nan nan nan nan nan nan nan 2 nan nan 13 24 14 12 20 18 20 31 32 24 22 22 22 22 18 8 7 8 9 10 10 8 6 6 6 6 6 11 11 13 14 15
nan nan 10 nan nan nan nan nan nan nan nan 2 9 nan nan 8 19 19 25 22 24 24 23 25 19 18 23 6 5 6 7 9 10 9 8 8 7 7 7 8 11 11 14 14
nan nan 10 nan nan nan nan nan 8 nan nan nan nan 24 22 26 31 24 19 19 20 24 27 22 16 17 8 3 7 5 9 9 12 8 6 7 4 8 7 12 11 11 11 11
nan 9 nan nan nan nan nan nan nan nan nan nan nan nan 6 27 37 30 24 21 18 23 32 14 12 26 5 2 3 9 9 12 12 7 8 9 10 10 10 8 11 9 8 9
4 13 nan 11 nan nan nan nan nan nan nan nan nan 2 20 33 41 30 28 25 21 22 23 15 14 6 6 5 8 10 9 12 10 13 9 14 14 12 10 9 7 7 9 14
7 9 9 8 10 14 nan nan 4 10 nan nan nan 30 15 33 34 32 32 24 20 18 17 14 15 12 12 13 13 13 12 13 13 14 13 14 13 13 12 12 14 15 15 15
20 16 15 12 9 nan 33 nan nan nan nan 17 nan 26 18 21 28 31 26 21 18 18 13 9 12 11 13 12 14 13 16 16 15 13 13 14 16 15 16 17 18 17 16 16
16 20 22 15 14 12 27 20 24 2 31 31 22 25 21 11 31 29 25 18 13 13 12 11 10 9 9 12 17 20 22 21 16 15 17 15 16 17 17 17 18 18 18 19
18 16 21 15 13 16 5 50 44 25 20 33 29 26 21 17 16 28 21 20 18 20 15 13 13 14 17 18 20 23 25 22 19 20 20 19 19 20 20 20 21 20 21 nan
21 23 23 21 20 19 43 51 28 16 29 28 27 22 20 22 39 27 25 24 21 20 19 13 12 14 17 19 22 25 25 23 23 22 23 22 21 23 23 23 24 23 23 24
32 28 20 20 20 15 52 41 38 47 44 42 36 32 25 28 26 23 20 27 21 19 19 17 12 13 15 19 20 22 25 26 27 23 22 21 21 22 23 24 24 25 nan nan
nan nan 54 52 49 nan nan 62 58 56 54 52 43 38 32 36 33 27 26 27 20 16 17 17 14 13 14 16 17 23 25 25 19 19 21 20 22 23 24 nan nan nan nan nan
nan nan nan nan 49 nan nan nan nan nan nan nan nan nan 38 35 38 36 25 28 21 20 20 17 21 15 13 13 16 22 19 18 20 23 23 23 24 nan nan nan nan nan nan nan
nan nan nan nan nan nan nan nan nan nan nan nan nan nan nan nan 43 42 38 27 23 23 24 20 23 21 18 17 19 19 21 23 23 24 24 23 nan nan nan nan nan nan nan nan
nan nan nan nan nan nan nan nan nan nan nan nan nan nan nan nan nan 46 47 36 29 21 25 22 24 26 26 22 22 22 24 23 25 25 22 nan nan nan nan nan nan nan nan nan
Wind_Direction
nan 110 nan nan nan nan nan nan nan 303 344 35 63 334 359 16 24 9 32 22 36 19 335 nan 274 nan nan nan nan 263 222 235 225 228 212 236 230 244 264 280 294 306 358 0
127 176 90 nan nan nan nan nan nan nan nan 59 346 339 352 5 10 18 8 33 38 25 9 349 352 20 nan nan nan nan 197 206 202 248 242 244 212 226 221 260 299 335 354 346
228 101 nan nan nan nan nan nan nan nan nan 42 311 334 5 352 1 358 13 20 16 35 18 17 25 30 nan nan nan nan 173 218 226 205 246 255 220 229 243 280 292 316 341 341
131 142 nan nan nan nan nan nan nan nan nan 308 42 nan 76 354 358 354 358 12 14 5 33 21 31 32 16 355 nan nan 319 259 269 265 250 254 214 216 236 263 277 323 335 341
nan 106 nan nan nan nan nan nan nan nan nan nan 316 28 0 338 351 358 11 5 13 8 3 16 21 26 22 23 345 311 311 299 259 288 263 277 248 246 258 264 279 319 334 353
nan nan nan nan nan nan nan nan nan nan nan nan nan 137 202 33 8 16 18 11 11 3 12 5 0 357 20 19 359 342 336 304 282 282 298 290 220 199 211 249 248 321 307 328
nan nan nan nan nan nan nan nan 27 334 nan nan nan 28 16 32 23 10 8 8 359 357 351 3 2 350 0 9 19 336 355 317 320 308 304 309 69 73 106 30 60 237 310 317
nan nan nan nan nan nan nan nan nan nan nan nan nan 305 nan 293 320 336 346 355 355 359 346 354 4 3 355 10 5 15 24 76 32 42 85 111 94 101 63 10 51 334 313 322
nan nan nan nan nan nan nan nan nan nan nan nan nan 138 294 292 307 323 334 338 341 344 347 357 355 0 3 16 22 12 17 34 63 56 61 59 37 51 15 353 332 343 8 7
nan nan nan nan nan nan nan nan nan nan nan 195 nan 144 249 306 319 316 321 332 334 331 342 348 352 354 358 23 20 30 27 19 39 66 37 39 19 13 9 359 342 29 37 13
nan nan nan nan nan nan nan nan nan nan nan 45 nan nan 279 307 313 317 326 343 339 334 333 341 345 343 348 6 3 15 22 18 24 36 42 21 23 17 29 44 21 17 12 9
nan nan nan nan nan nan nan nan nan 60 nan nan 250 276 184 314 316 328 339 339 341 348 337 336 334 331 328 337 349 359 7 19 28 34 37 45 37 68 22 4 13 9 8 7
nan nan 143 nan nan nan nan nan nan nan nan 334 267 nan nan 312 307 339 339 342 347 344 343 331 322 322 316 353 345 354 2 360 16 1 7 41 20 3 16 11 3 13 1 358
nan nan 119 nan nan nan nan nan 202 nan nan nan nan 326 29 318 296 310 331 332 345 344 339 323 305 302 309 326 330 341 356 354 347 347 347 329 342 326 344 336 341 343 341 347
nan 120 nan nan nan nan nan nan nan nan nan nan nan nan 259 292 294 304 320 336 340 345 344 332 301 290 40 328 316 331 3 341 338 327 307 294 304 310 308 310 319 327 325 344
226 165 nan 177 nan nan nan nan nan nan nan nan nan 103 278 267 287 314 325 336 341 353 351 16 52 40 91 43 35 356 1 323 313 303 304 301 306 295 304 316 326 319 285 281
221 240 215 194 178 209 nan nan 294 225 nan nan nan 250 213 277 299 319 328 335 341 355 4 33 52 43 35 14 3 348 344 322 316 309 317 298 304 308 291 288 288 295 288 291
216 196 223 214 210 nan 137 nan nan nan nan 190 nan 269 255 283 300 312 323 328 343 357 10 11 47 31 27 13 344 338 333 306 302 304 298 289 286 297 305 308 300 296 288 289
249 236 222 225 203 192 335 291 278 212 260 255 231 253 269 267 290 308 322 327 331 349 9 17 20 17 356 320 317 322 311 305 302 298 284 297 305 310 312 310 305 302 302 300
261 245 256 240 223 283 134 247 216 228 250 253 260 256 261 256 325 291 325 323 333 332 339 348 343 328 306 305 311 311 307 304 303 301 302 306 308 308 306 307 305 302 306 nan
281 262 228 254 244 222 245 254 280 290 263 266 254 254 232 217 229 246 302 323 313 324 326 313 305 302 302 308 308 305 302 303 297 297 301 304 307 303 303 302 304 303 291 288
214 220 240 263 243 243 236 249 248 253 256 254 247 243 234 222 235 252 277 308 318 320 311 311 295 290 299 302 302 300 302 302 300 294 298 303 308 308 305 302 298 295 nan nan
nan nan 234 225 229 nan nan 243 243 247 255 252 252 251 235 224 223 244 266 291 299 318 324 312 304 298 299 301 306 300 304 311 312 305 304 309 303 303 305 nan nan nan nan nan
nan nan nan nan 250 nan nan nan nan nan nan nan nan nan 235 226 223 227 247 278 284 298 302 325 313 312 309 314 302 294 300 310 308 304 303 302 305 nan nan nan nan nan nan nan
nan nan nan nan nan nan nan nan nan nan nan nan nan nan nan nan 227 226 227 233 265 281 295 309 315 306 305 300 303 302 300 296 294 297 299 305 nan nan nan nan nan nan nan nan
nan nan nan nan nan nan nan nan nan nan nan nan nan nan nan nan nan 226 233 231 226 256 280 295 304 303 300 301 297 302 300 299 296 299 304 nan nan nan nan nan nan nan nan nan